Location: Fornova de Taro
(44.7000°N, 10.1000°E)
Time: 21:58:17
(UTC+00:00)

ALOS - Pass Details

Date: 26 May 2022
Orbit: 682 x 683 km, 97.9° (Epoch: 04 July)

Event Time Altitude Azimuth Distance (km) Brightness Sun altitude
Rises 02:31:03 0° 18° (NNE) 3,056 6.8 -10.7°
Reaches altitude 10° 02:33:22 10° 23° (NNE) 2,136 6.0 -10.4°
Maximum altitude 02:37:55 50° 99° (E) 871 3.1 -9.8°
Drops below altitude 10° 02:42:25 10° 175° (S) 2,119 4.4 -9.2°
Sets 02:44:42 0° 181° (S) 3,030 5.2 -8.9°
Enters shadow 02:44:42 - 181° (S) 3,031 5.2 -8.9°
